Regional Weather Roundup
Issued by NWS

Home | Current Version | Previous Version | Text Only | Print | Product List | Glossary Off
Versions: 1 2 3 4 5 6 7 8 9 10 11 12 13 14 15 16 17 18 19 20 21 22 23 24 25 26 27

000
ASUS43 KDMX 170207
RWRIA

WEATHER ROUNDUP FOR IOWA
NATIONAL WEATHER SERVICE DES MOINES IA
900 PM CDT WED APR 16 2014

NOTE: "FAIR" INDICATES FEW OR NO CLOUDS BELOW 12,000 FEET WITH NO
SIGNIFICANT WEATHER AND/OR OBSTRUCTIONS TO VISIBILITY.

* - THESE STATIONS ARE NOT NWS STATIONS...THUS NOT UNDER NWS
QUALITY CONTROL.  THEY ALSO DO NOT REPORT WEATHER SUCH
AS PRECIPITATION OR FOG.

IAZ001>003-012>014-020>022-031>034-043>046-170300-
   NORTHWEST IOWA

CITY           SKY/WX    TMP DP  RH WIND       PRES   REMARKS
CARROLL *      CLOUDY    45  39  81 NW18G24   29.85R
CHEROKEE *     CLOUDY    33  32  94 NW18G25   29.93R WCI  22
DENISON *      CLOUDY    37  36  93 NW24      29.90R WCI  26
LE MARS *      CLOUDY    32  28  86 N20G33    29.99R WCI  20
ORANGE CITY *  CLOUDY    32  27  80 N17G24    29.98R WCI  21
SHELDON *      CLOUDY    30  28  93 N26G33    29.95R WCI  16
SIOUX CITY     CLOUDY    35  29  78 NW29G37   29.99R WCI  22
SPENCER        LGT RAIN  33  30  88 N25G35    29.90R WCI  20
STORM LAKE *   CLOUDY    36  36 100 NW25      29.89R WCI  23
$$

IAZ055>058-069>071-079>083-090>094-170300-
   SOUTHWEST IOWA

CITY           SKY/WX    TMP DP  RH WIND       PRES   REMARKS
ATLANTIC *     CLOUDY    41  36  81 NW21      29.93R
AUDUBON *      CLOUDY    43  36  75 W12G22    29.91R
CLARINDA *     PTCLDY    43  34  70 NW15G28   29.97R
COUNCIL BLFS * CLOUDY    37  34  87 NW21G32   29.96R WCI  27
CRESTON *      CLOUDY    45  34  65 W16G23    29.91R
HARLAN  *      CLOUDY    37  34  87 NW22G35   29.98R WCI  27
LAMONI         MOCLDY    50  35  56 W15G26    29.89R
RED OAK *      CLOUDY    41  34  75 NW16G29   29.96R
SHENANDOAH *   CLOUDY    41  32  70 NW17G30   29.98R
$$

IAZ047>049-059>061-072>074-084-170300-
   CENTRAL IOWA

CITY           SKY/WX    TMP DP  RH WIND       PRES   REMARKS
AMES           CLOUDY    50  38  63 W10G24    29.81R
ANKENY *       CLOUDY    52  36  54 W14G22    29.83R
CHARITON *     CLOUDY    57  36  44 S15       29.86R
DES MOINES     LGT RAIN  52  35  52 NW17      29.85R
GRINNELL*      MOCLDY    53  33  46 SE15      29.84R
KNOXVILLE *    CLOUDY    57  34  41 S18       29.84R
MARSHALLTOWN   CLOUDY    53  35  50 SE20      29.80R
NEWTON *       CLOUDY    55  34  44 S17       29.83R
PELLA *        PTCLDY    55  33  43 S14G21    29.86R
PERRY *        CLOUDY    46  37  70 W15       29.84R
$$

IAZ004>006-015-016-023>025-035-036-170300-
   NORTH CENTRAL IOWA

CITY           SKY/WX    TMP DP  RH WIND       PRES   REMARKS
ALGONA *       DRIZZLE   39  39 100 N16       29.82R WCI  30
CLARION *      LGT RAIN  45  41  87 NW14      29.78R
ESTHERVILLE    LGT SNOW  32  32 100 NW21      29.88R FOG     WCI  20
FORT DODGE *   CLOUDY    45  37  76 CALM      29.82R
MASON CITY     CLOUDY    50  38  63 SW8       29.77R
FOREST CITY *  DRIZZLE   43  41  93 N12       29.76R
IOWA FALLS *   CLOUDY    54  36  51 S17G24    29.78R
$$

IAZ007>011-017>019-026>030-037>042-050>054-066-170300-
   NORTHEAST IOWA

CITY           SKY/WX    TMP DP  RH WIND       PRES   REMARKS
CEDAR RAPIDS   CLOUDY    51  28  41 SE21G32   29.89S
CHARLES CITY * CLOUDY    50  34  53 SE21G28   29.80R
CLINTON *      CLOUDY    50  27  40 SE17      30.05S
DECORAH *      CLOUDY    50  30  46 SE18G29   29.85S
DUBUQUE        CLOUDY    48  28  46 SE22G29   29.96F
MONTICELLO *   CLOUDY    50  30  46 SE16G23   29.94S
OELWEIN *      CLOUDY   N/A N/A N/A SE25G31   29.86R
WATERLOO       CLOUDY    53  31  42 SE22G31   29.82R
$$

IAZ064-065-067-068-078-170300-
   EAST CENTRAL IOWA

CITY           SKY/WX    TMP DP  RH WIND       PRES   REMARKS
DAVENPORT      CLOUDY    50  27  40 SE21      30.01S
IOWA CITY      CLOUDY    50  31  48 SE15      29.94S
MT. PLEASANT * MOCLDY    52  28  38 SE20      29.96S
MUSCATINE *    CLOUDY    52  30  43 SE14G23   29.97S
QUAD CITIES    CLOUDY    50  27  40 SE14G23   30.02S
$$

IAZ062-063-075>077-085>089-095>099-170300-
   SOUTHEAST IOWA

CITY           SKY/WX    TMP DP  RH WIND       PRES   REMARKS
BURLINGTON     MOCLDY    51  28  41 SE15      29.99R
FAIRFIELD *    PTCLDY    55  27  33 S16       29.92R
FORT MADISON * MOCLDY    52  30  43 SE14G20   29.99S
KEOKUK *       MOCLDY    54  28  37 SE13G21   29.97S
OSKALOOSA *      N/A     51  33  49 S15       29.88R
CENTERVILLE *    N/A     54  32  43 SE15      29.89R
OTTUMWA        CLEAR     54  30  40 S17       29.88R
WASHINGTON *   MOCLDY    52  30  43 SE20G26   29.93S
$$

ABBREVIATIONS USED IN REMARKS
   TC - TEMPERATURES IN CELSIUS
  WCI - WIND CHILL INDEX
   HX - HEAT INDEX
  VSB - VISIBILITY
$$




USA.gov is the U.S. government's official web portal to all federal, state and local government web resources and services.